Location: Baia Mare
(47.6567°N, 23.5850°E)
Time: 13:35:33
(UTC+02:00)

ISS - Pass Details

Date: 02 December 2018
Orbit: 401 x 408 km, 51.6° (Epoch: 16 December)

Event Time Altitude Azimuth Distance (km) Brightness Sun altitude
Rises 17:23:08 0° 256° (WSW) 2,313 2.1 -7.8°
Reaches altitude 10° 17:25:13 10° 260° (W) 1,454 0.5 -8.2°
Maximum altitude 17:28:27 61° 342° (NNW) 462 -3.6 -8.7°
Enters shadow 17:31:16 13° 62° (ENE) 1,286 -2.0 -9.1°
